Date String (YYYY-MM-DD hh:mm:ss) UTC,Instrument flags,absolute air pressure of the measurement (hPa),sample flow rate (lpm),inlet stack bypass flow (lpm),air temperature of the measurement (°C),ambient temperature measured by the external sensor (°C),aerosol sample conditioner tube jacket temperature (°C),OPC LED temperature (°C),internal box temperature (°C),relative humidity of the measurement (%),span deviation,mass concentration of particles derived from Lorenz-Mie calculation of OPC scattering (μg/m³),mass concentration of particles derived from Lorenz-Mie calculation of OPC scattering (μg/m³),mass concentration of particles derived from Lorenz-Mie calculation of OPC scattering (μg/m³)
DateTimeUTC,F1_M11,P_M11,Q1_M11,Q2_M11,T1_M11,T2_M11,T3_M11,T4_M11,T5_M11,U1_M11,ZSPAN_M11,X0_M11,X2_M11,X1_M11
2024-04-09 05:00:00,SystemResetWarning,0830.4,5.00,000.00,024.0,023.1,000.0,032.6,025.7,013.8,0000.0,0012.07,0002.59,0001.21
2024-04-09 05:01:00,SystemResetWarning,0830.8,5.00,000.00,023.9,023.1,000.0,032.6,025.7,013.8,0000.0,0012.60,0002.48,0001.15
2024-04-09 05:02:00,SystemResetWarning,0830.8,5.00,000.00,023.9,023.0,000.0,032.6,025.7,013.8,0000.0,0012.86,0002.38,0001.10
2024-04-09 05:03:00,SystemResetWarning,0830.7,5.00,000.00,023.9,023.0,000.0,032.6,025.7,013.8,0000.0,0012.95,0002.32,0001.07
2024-04-09 05:04:00,SystemResetWarning,0830.4,5.01,000.00,023.9,023.0,000.0,032.6,025.7,013.8,0000.0,0012.28,0002.29,0001.04
2024-04-09 05:05:00,SystemResetWarning,0830.4,5.01,000.00,023.9,023.0,000.0,032.5,025.7,013.8,0000.0,0012.00,0002.20,0001.01
2024-04-09 05:06:00,SystemResetWarning,0830.4,5.00,000.00,023.9,023.1,000.0,032.5,025.7,013.9,0000.0,0012.59,0002.31,0001.00
2024-04-09 05:07:00,SystemResetWarning,0830.4,5.00,000.00,023.9,023.1,000.0,032.5,025.7,013.9,0000.0,0011.85,0002.29,0000.99
2024-04-09 05:08:00,SystemResetWarning,0830.4,4.99,000.00,023.9,023.0,000.0,032.5,025.7,013.9,0000.0,0011.30,0002.21,0000.97
2024-04-09 05:09:00,SystemResetWarning,0830.4,4.99,000.00,023.9,023.1,000.0,032.5,025.7,013.9,0000.0,0011.17,0002.14,0000.95
2024-04-09 05:10:00,SystemResetWarning,0830.4,5.00,000.00,023.9,023.0,000.0,032.5,025.7,014.0,0000.0,0011.30,0002.10,0000.94
2024-04-09 05:11:00,SystemResetWarning,0830.4,5.00,000.00,023.9,023.0,000.0,032.5,025.7,013.9,0000.0,0010.54,0001.98,0000.93
2024-04-09 05:12:00,SystemResetWarning,0830.7,5.00,000.00,023.9,023.1,000.0,032.5,025.7,013.9,0000.0,0010.25,0001.92,0000.93
2024-04-09 05:13:00,SystemResetWarning,0830.8,5.01,000.00,023.9,023.1,000.0,032.5,025.7,013.9,0000.0,0009.84,0001.91,0000.93
2024-04-09 05:14:00,SystemResetWarning,0830.5,5.00,000.00,023.9,023.1,000.0,032.5,025.7,013.9,0000.0,0009.42,0001.95,0000.93
2024-04-09 05:15:00,SystemResetWarning,0830.6,5.00,000.00,023.9,023.1,000.0,032.5,025.7,013.9,0000.0,0009.51,0001.95,0000.94
2024-04-09 05:16:00,SystemResetWarning,0830.7,5.00,000.00,023.9,023.1,000.0,032.5,025.7,013.8,0000.0,0009.80,0001.98,0000.93
2024-04-09 05:17:00,SystemResetWarning,0830.6,5.00,000.00,023.9,023.1,000.0,032.5,025.7,013.7,0000.0,0009.18,0001.95,0000.93
2024-04-09 05:18:00,SystemResetWarning,0830.5,5.00,000.00,023.9,023.1,000.0,032.5,025.7,013.7,0000.0,0008.47,0001.86,0000.93
2024-04-09 05:19:00,SystemResetWarning,0830.5,5.00,000.00,023.9,023.1,000.0,032.5,025.7,013.8,0000.0,0008.51,0001.85,0000.93
2024-04-09 05:20:00,SystemResetWarning,0830.5,4.99,000.00,023.9,023.1,000.0,032.5,025.7,013.8,0000.0,0008.82,0001.86,0000.92
2024-04-09 05:21:00,SystemResetWarning,0830.5,4.99,000.00,023.9,023.1,000.0,032.5,025.7,014.0,0000.0,0008.55,0001.84,0000.92
2024-04-09 05:22:00,SystemResetWarning,0830.5,5.00,000.00,023.9,023.1,000.0,032.5,025.7,013.9,0000.0,0009.06,0001.87,0000.91
2024-04-09 05:23:00,SystemResetWarning,0830.5,5.00,000.00,023.9,023.0,000.0,032.5,025.7,013.8,0000.0,0008.82,0001.93,0000.91
2024-04-09 05:24:00,SystemResetWarning,0830.5,5.01,000.00,023.9,023.1,000.0,032.5,025.7,013.8,0000.0,0008.77,0001.95,0000.92
2024-04-09 05:25:00,SystemResetWarning,0830.4,5.01,000.00,023.9,023.0,000.0,032.5,025.7,013.9,0000.0,0008.76,0001.89,0000.91
2024-04-09 05:26:00,SystemResetWarning,0830.5,5.00,000.00,023.9,023.0,000.0,032.5,025.7,014.0,0000.0,0009.85,0001.89,0000.91
2024-04-09 05:27:00,SystemResetWarning,0830.6,5.00,000.00,023.8,023.0,000.0,032.5,025.7,014.0,0000.0,0009.79,0001.94,0000.91
2024-04-09 05:28:00,SystemResetWarning,0830.5,5.00,000.00,023.8,023.0,000.0,032.5,025.7,014.1,0000.0,0009.38,0001.90,0000.92
2024-04-09 05:29:00,SystemResetWarning,0830.5,5.00,000.00,023.8,023.0,000.0,032.5,025.7,014.2,0000.0,0009.39,0001.91,0000.91
2024-04-09 05:30:00,SystemResetWarning,0830.5,5.00,000.00,023.8,023.0,000.0,032.4,025.7,014.3,0000.0,0010.04,0001.90,0000.91
2024-04-09 05:31:00,SystemResetWarning,0830.5,5.00,000.00,023.8,023.0,000.0,032.4,025.7,014.4,0000.0,0010.01,0001.89,0000.90
2024-04-09 05:32:00,SystemResetWarning,0830.5,5.00,000.00,023.8,023.0,000.0,032.4,025.7,014.5,0000.0,0010.20,0001.84,0000.89
2024-04-09 05:33:00,SystemResetWarning,0830.5,5.00,000.00,023.8,023.0,000.0,032.4,025.6,014.6,0000.0,0011.76,0001.84,0000.88
2024-04-09 05:34:00,SystemResetWarning,0830.7,5.00,000.00,023.8,023.0,000.0,032.4,025.6,014.7,0000.0,0011.75,0001.77,0000.86
2024-04-09 05:35:00,SystemResetWarning,0830.7,5.00,000.00,023.8,023.0,000.0,032.4,025.6,014.7,0000.0,0012.60,0001.71,0000.84
2024-04-09 05:36:00,SystemResetWarning,0830.7,5.00,000.00,023.8,023.0,000.0,032.4,025.6,014.8,0000.0,0012.70,0001.64,0000.82
2024-04-09 05:37:00,SystemResetWarning,0830.6,5.00,000.00,023.8,023.0,000.0,032.4,025.6,014.8,0000.0,0012.49,0001.55,0000.80
2024-04-09 05:38:00,SystemResetWarning,0830.6,5.01,000.00,023.8,023.0,000.0,032.4,025.6,014.8,0000.0,0011.71,0001.46,0000.78
2024-04-09 05:39:00,SystemResetWarning,0830.6,5.00,000.00,023.8,023.0,000.0,032.4,025.6,014.9,0000.0,0011.53,0001.38,0000.76
2024-04-09 05:40:00,SystemResetWarning,0830.6,5.00,000.00,023.8,023.0,000.0,032.4,025.6,014.9,0000.0,0011.35,0001.34,0000.74
2024-04-09 05:41:00,SystemResetWarning,0830.6,5.00,000.00,023.8,022.9,000.0,032.4,025.6,014.9,0000.0,0010.50,0001.29,0000.72
2024-04-09 05:42:00,SystemResetWarning,0830.7,5.00,000.00,023.8,022.9,000.0,032.4,025.6,014.9,0000.0,0010.33,0001.25,0000.72
2024-04-09 05:43:00,SystemResetWarning,0830.7,4.99,000.00,023.8,022.9,000.0,032.4,025.6,014.9,0000.0,0010.07,0001.27,0000.72
2024-04-09 05:44:00,SystemResetWarning,0830.6,5.00,000.00,023.8,022.9,000.0,032.4,025.6,014.9,0000.0,0008.42,0001.26,0000.72
2024-04-09 05:45:00,SystemResetWarning,0830.6,5.00,000.00,023.7,022.9,000.0,032.4,025.6,014.9,0000.0,0007.94,0001.20,0000.73
2024-04-09 05:46:00,SystemResetWarning,0830.6,5.00,000.00,023.7,022.9,000.0,032.4,025.6,015.1,0000.0,0007.29,0001.22,0000.73
2024-04-09 05:47:00,SystemResetWarning,0830.6,5.02,000.00,023.7,022.9,000.0,032.4,025.6,015.2,0000.0,0007.09,0001.22,0000.73
2024-04-09 05:48:00,SystemResetWarning,0830.7,4.99,000.00,023.7,022.9,000.0,032.3,025.5,015.2,0000.0,0006.86,0001.24,0000.73
2024-04-09 05:49:00,SystemResetWarning,0830.6,4.99,000.00,023.7,022.9,000.0,032.3,025.5,015.3,0000.0,0007.20,0001.22,0000.73
2024-04-09 05:50:00,SystemResetWarning,0830.7,5.00,000.00,023.7,022.9,000.0,032.3,025.6,015.3,0000.0,0007.10,0001.18,0000.72
2024-04-09 05:51:00,SystemResetWarning,0830.7,5.01,000.00,023.7,022.9,000.0,032.3,025.6,015.3,0000.0,0006.97,0001.15,0000.72
2024-04-09 05:52:00,SystemResetWarning,0830.6,5.01,000.00,023.7,022.9,000.0,032.3,025.5,015.4,0000.0,0006.94,0001.14,0000.71
2024-04-09 05:53:00,SystemResetWarning,0830.7,5.00,000.00,023.7,022.9,000.0,032.3,025.5,015.5,0000.0,0007.40,0001.14,0000.70
2024-04-09 05:54:00,SystemResetWarning,0830.7,5.00,000.00,023.7,022.9,000.0,032.3,025.5,015.5,0000.0,0007.31,0001.17,0000.69
2024-04-09 05:55:00,SystemResetWarning,0830.7,5.00,000.00,023.7,022.9,000.0,032.3,025.5,015.5,0000.0,0006.71,0001.15,0000.68
2024-04-09 05:56:00,SystemResetWarning,0830.6,5.00,000.00,023.7,022.9,000.0,032.3,025.5,015.5,0000.0,0006.12,0001.13,0000.66
2024-04-09 05:57:00,SystemResetWarning,0830.7,5.01,000.00,023.7,022.9,000.0,032.3,025.5,015.5,0000.0,0006.85,0001.10,0000.64
2024-04-09 05:58:00,SystemResetWarning,0830.7,4.99,000.00,023.7,022.9,000.0,032.3,025.5,015.5,0000.0,0007.04,0001.11,0000.64
2024-04-09 05:59:00,SystemResetWarning,0830.7,4.99,000.00,023.7,022.9,000.0,032.3,025.5,015.5,0000.0,0006.58,0001.10,0000.64
